Location: Newark
(45.4422°N, 16.2769°E)
Time: 14:07:57
(UTC+00:00)

Tiros 1 - Visible Passes

Search period start: 14 December 2019 00:00
Search period end: 24 December 2019 00:00
Orbit: 630 x 664 km, 48.4° (Epoch: 13 December)

Date Brightness Start Highest point End Pass type
(mag) Time Alt. Az. Time Alt. Az. Time Alt. Az.
14 Dec 10.3 02:30:31 11° E 02:30:31 11° E 02:30:46 10° E visible
14 Dec 7.5 04:08:13 45° SSW 04:09:24 62° SSE 04:14:02 10° ENE visible
14 Dec 7.2 05:46:58 10° W 05:51:40 64° N 05:56:19 10° ENE visible
15 Dec 9.6 02:55:54 20° E 02:55:54 20° E 02:57:42 10° E visible
15 Dec 7.0 04:33:34 37° WSW 04:35:26 85° NNW 04:40:09 10° ENE visible
16 Dec 8.6 03:21:08 35° E 03:21:08 35° E 03:24:00 10° ENE visible
16 Dec 7.2 04:58:49 24° W 05:01:37 65° N 05:06:17 10° ENE visible
17 Dec 7.6 03:46:16 59° ENE 03:46:16 59° ENE 03:50:07 10° ENE visible
17 Dec 7.3 05:23:57 15° WNW 05:27:51 59° N 05:32:29 10° E visible
18 Dec 10.2 02:33:40 12° ENE 02:33:40 12° ENE 02:33:57 10° ENE visible
18 Dec 7.1 04:11:20 65° NNW 04:11:33 66° N 04:16:14 10° ENE visible
18 Dec 7.3 05:49:23 10° WNW 05:54:06 66° N 05:58:45 10° E visible
19 Dec 9.6 02:58:41 19° ENE 02:58:41 19° ENE 03:00:05 10° ENE visible
19 Dec 7.3 04:36:21 40° WNW 04:37:47 59° N 04:42:27 10° E visible
20 Dec 8.8 03:23:40 31° ENE 03:23:40 31° ENE 03:26:12 10° ENE visible
20 Dec 7.3 05:01:20 25° WNW 05:04:02 65° N 05:08:42 10° E visible
21 Dec 7.8 03:48:37 50° NE 03:48:37 50° NE 03:52:24 10° E visible
21 Dec 7.1 05:26:17 15° WNW 05:30:13 85° NNE 05:34:54 10° ESE visible
22 Dec 10.2 02:35:54 11° ENE 02:35:54 11° ENE 02:36:09 10° ENE visible
22 Dec 7.2 04:13:34 61° NNW 04:13:58 64° N 04:18:39 10° E visible
22 Dec 7.4 05:51:35 10° WNW 05:56:15 62° SSW 06:00:52 10° SE visible
23 Dec 9.6 03:00:52 20° ENE 03:00:52 20° ENE 03:02:21 10° ENE visible
23 Dec 7.1 04:38:31 41° WNW 04:40:09 82° NNE 04:44:52 10° ESE visible
